Regional Weather Roundup
Issued by NWS

Home | Current Version | Previous Version | Graphics & Text | Print | Product List | Glossary On
Versions: 1 2 3 4 5 6 7 8 9 10 11 12 13 14 15 16 17 18 19 20 21 22 23 24 25 26
000
ASUS45 KTFX 230310
RWRMT
MONTANA REGIONAL WEATHER ROUNDUP
NATIONAL WEATHER SERVICE GREAT FALLS MT
900 PM MDT TUE AUG 22 2017

NOTE: "FAIR" INDICATES FEW OR NO CLOUDS BELOW 12000 FEET WITH NO
SIGNIFICANT WEATHER AND/OR OBSTRUCTIONS TO VISIBILITY.

MTZ001>007-043-230400-
WEST OF THE DIVIDE

CITY           SKY/WX    TMP DP  RH WIND       PRES   REMARKS
KALISPELL      CLEAR     70  44  39 CALM      29.98S
MISSOULA       CLEAR     75  39  27 N7        30.01R
BUTTE          CLEAR     74  33  22 NW7       30.17R
MULLAN PASS    CLEAR     68  36  30 SW6       30.21S
ANACONDA         N/A     72  34  25 SW7       30.14R
DEER LODGE       N/A     73  34  23 CALM      30.14R
EUREKA           N/A     81  39  22 MISG      29.94R
HAMILTON         N/A     66  46  48 E6        30.06R
LIBBY            N/A     77  39  25 CALM      29.94R
$$

MTZ008-052>055-230400-
SOUTHWEST MONTANA

CITY           SKY/WX    TMP DP  RH WIND       PRES   REMARKS
BOZEMAN        CLEAR     70  43  37 S6        30.07S
DILLON         CLEAR     69  41  36 SW3       30.11R
W YELLOWSTONE  CLEAR     64  30  27 SW6       30.27R
ENNIS          CLEAR     66  32  28 S5        30.19R
$$

MTZ009-010-012-014-046-048-049-054-230400-
EAST SLOPES AND CENTRAL MONTANA

CITY           SKY/WX    TMP DP  RH WIND       PRES   REMARKS
CUT BANK       CLEAR     71  37  28 E7        30.05R
GREAT FALLS    CLEAR     74  31  20 E6        30.03S
MALMSTROM AFB  CLEAR     72  30  21 E8        30.02S
HELENA         CLEAR     80  35  19 CALM      30.05R
AUGUSTA          N/A     70  33  26 NE7       30.09R
BOWMANS CRNR     N/A     75  29  18 NE7       30.05R
CHOTEAU          N/A     70  36  28 E6        30.07S
FAIRFIELD        N/A     76  32  19 NE8       30.04
POWER            N/A     71  32  23 E8        30.04R
RAYNESFORD       N/A     71  35  26 E6        30.07R
ULM              N/A     71  31  22 E8        30.03R
$$

MTZ011-013-016-021-045-047-050-051-230400-
NORTH CENTRAL MONTANA

CITY           SKY/WX    TMP DP  RH WIND       PRES   REMARKS
HAVRE          CLEAR     71  42  35 E8        30.00S
LEWISTOWN      CLEAR     73  34  23 E7        30.09R
N BAR RANCH      N/A     70  34  26 CALM      30.15R
CHINOOK          N/A     73  46  38 CALM      30.00S
DENTON           N/A     73  35  25 NE5       30.02S
GEYSER           N/A     69  34  27 SE6       30.08R
GRASS RANGE      N/A     69  33  26 CALM      30.05R
JUDITH GAP       N/A     69  34  27 S8        30.12R
WINIFRED       MOCLDY    66  34  30 E9        30.06R
$$

MTZ017>020-022>027-061-062-230400-
NORTHEAST MONTANA

CITY           SKY/WX    TMP DP  RH WIND       PRES   REMARKS
GLASGOW        CLEAR     72  34  24 E12       30.02S
JORDAN           N/A     72  34  24 E6        30.03S
SIDNEY         CLEAR     67  43  41 CALM      30.08R
WOLF POINT     CLEAR     69  39  33 E7        30.05R
MALTA          CLEAR     72  39  30 NE7       30.00S
PLENTYWOOD       N/A     70  39  32 CALM      30.06F
$$

MTZ028>42-056>058-230400-
SOUTHCENTRAL AND SOUTHEAST MONTANA

CITY           SKY/WX    TMP DP  RH WIND       PRES   REMARKS
BAKER          CLEAR     70  37  29 E13       30.11R
BILLINGS       CLEAR     78  37  22 E6        30.06R
LIVINGSTON     CLEAR     70  37  29 SE3       30.08R
MILES CITY     CLEAR     77  35  21 NE12      30.04S
BIG TIMBER     CLEAR     77  34  20 SE14G22   30.11R
HARLOWTON        N/A     73  33  22 MISG      30.09R
LAUREL           N/A     75  36  23 NE6       30.06R
$$

REGIONAL REPORTS...DAKOTAS

CITY           SKY/WX    TMP DP  RH WIND       PRES   REMARKS
WILLISTON      PTCLDY    71  45  39 SE5       30.08S
MINOT          CLEAR     61  43  51 E3        30.10R
DICKINSON      CLEAR     58  43  57 E8        30.11S
BEACH            N/A     61  39  44 E10       30.14S
CROSBY           N/A     61  43  51 SE8       30.08S
TIOGA            N/A     61  45  55 SE7       30.11S
WATFORD CITY     N/A     63  39  42 SE8       30.09S
BISMARCK       CLEAR     63  47  55 E3        30.12S
GRAND FORKS    PTCLDY    57  48  72 NW6       30.06S
FARGO          CLEAR     56  48  74 CALM      30.07S
BUFFALO SD       N/A     70  44  39 E13       30.05R
RAPID CITY     CLEAR     70  46  42 E10       30.10R
$$

REGIONAL REPORTS...WYOMING/IDAHO/WASHINGTON

CITY           SKY/WX    TMP DP  RH WIND       PRES   REMARKS
GILLETTE       CLEAR     60  32  34 SW3       30.13S
SHERIDAN       CLEAR     62  43  49 CALM      30.10R
BUFFALO WY     CLEAR     68  36  30 W8        30.18S
CODY           CLEAR     73  38  27 W3        30.17R
YELLOWSTONE LA   N/A     52  34  50 NW3       30.39R
IDAHO FALLS    CLEAR     80  38  22 S7        30.12R
SALMON         MOCLDY    73  36  25 SE5       30.08R HAZE
BOISE          CLEAR     82  50  32 S3        29.97R
SPOKANE        CLOUDY    83  39  21 SW6       29.95S
$$

REGIONAL REPORTS...ALBERTA

CITY           SKY/WX    TMP DP  RH WIND       PRES   REMARKS
EDMONTON       PTCLDY    64  55  72 E3        29.98S
CALGARY        PTCLDY    72  45  37 E10       30.01F
LETHBRIDGE     PTCLDY    70  46  43 E8        29.98S
MEDICINE HAT   CLEAR     75  46  35 W2        29.96S
$$

REGIONAL REPORTS...SASKATCHEWAN

CITY           SKY/WX    TMP DP  RH WIND       PRES   REMARKS
SWIFT CURRENT  CLEAR     66  43  42 E9        30.02S
REGINA         MOCLDY    70  41  35 SE8       30.02R
SASKATOON      PTCLDY    64  52  63 NE2       30.00F
$$




USA.gov is the U.S. government's official web portal to all federal, state and local government web resources and services.